sat.trackr.live / text

‹ back to catalog

ONEWEB-0564

NORAD 55801 · 2023-029F

PAYLOAD ACTIVE UNKNOWN

§ Identity

Operator
Country
UK
Launch date
2023-03-09
Launch site
AFETR
Launch vehicle
Mass (kg)
RCS (m²)

Purposes: comms

External: N2YO · Heavens-Above · Gunter

§ Orbital elements

Epoch: 2026-05-25T02:31:40.763424Z

Period
109.03 min
Inclination
87.9167°
Eccentricity
0.0002308
Mean motion
13.20772249 rev/d
Perigee alt
1,180.0 km
Apogee alt
1,183.5 km
Semi-major
7,559.9 km
B*
3.3904e-5
RAAN
279.0578°
Arg perigee
98.4002°
Mean anomaly
261.7393°
Rev number
15,810

§ Raw data

ONEWEB-05641 55801U 23029F   26145.10533291  .00000027  00000+0  33904-4 0  99982 55801  87.9167 279.0578 0002308  98.4002 261.7393 13.20772249158106

JSON: /api/v1/satellites/55801 · /tle

For live sub-satellite position, see the globe view (requires WebGL).

§ Visibility from observer

Set your observer location to see the next 7 days of passes ≥ 10°. The values pass through the URL so the page stays shareable.

No JS? Fill the form by hand. The geolocation button needs JavaScript.